Home   Weather   Lismore   Past weeks
Flag for Australia

Past Weather in Lismore, New South Wales, Australia — Yesterday and Last 2 Weeks

Now
77 °F

Warm.


Feels Like: 79 °F
Forecast: 77 / 50 °F
Wind: 9 mph from Northwest

Location: Casino Airport Aws

Current Time: May 26, 2019 at 1:17:33 pm

Latest Report: May 26, 2019 at 12:00 pm


Visibility: N/A

Pressure: 30.00 "Hg

Humidity: 48%

Dew Point: 56 °F

Location of LismoreLocation

Past Weather in Lismore — Graph

°F

Lismore Temperature Yesterday

Maximum temperature yesterday: 76 °F (at 3:00 pm)
Minimum temperature yesterday: 48 °F (at 6:00 am)
Average temperature yesterday: 60 °F

High & Low Weather Summary for the Past Weeks

 TemperatureHumidityPressure
High77 °F (May 26, 12:00 pm)94% (May 14, 5:00 am)30.41 "Hg (May 14, 5:00 am)
Low42 °F (May 12, 3:00 am)26% (May 11, 3:00 pm)29.95 "Hg (May 16, 9:00 am)
Average62 °F79%30.28 "Hg
* Reported May 11 12:00 pm — May 26 12:00 pm, Lismore. Weather by CustomWeather, © 2019

Note: Actual official high and low records may vary slightly from our data, if they occured in-between our weather recording intervals... More about our weather records

Advertising

Lismore Weather History for the Previous 24 Hours

Scroll right to see more
 ConditionsComfort  
Time TempWeatherWind HumidityBarometerVisibility
12:00 pm
Sun, May 26
77 °FWarm.9 mph48%30.00 "HgN/A
11:00 am74 °FMild.9 mph51%30.03 "HgN/A
9:00 am63 °FMild.3 mph76%30.08 "HgN/A
8:00 am57 °FCool.No wind90%30.07 "HgN/A
6:00 am53 °FCool.5 mph91%30.05 "HgN/A
5:00 am53 °FCool.5 mph91%30.04 "HgN/A
3:00 am55 °FCool.6 mph92%30.06 "HgN/A
2:00 am54 °FCool.1 mph93%30.07 "HgN/A
12:00 am50 °FCool.No wind89%30.09 "HgN/A
11:00 pm
Sat, May 25
53 °FCool.3 mph90%30.11 "HgN/A
9:00 pm55 °FCool.3 mph89%30.11 "HgN/A
8:00 pm59 °FCool.No wind87%30.11 "HgN/A
6:00 pm60 °FCool.1 mph78%30.09 "HgN/A
5:00 pm67 °FMild.3 mph61%30.07 "HgN/A
3:00 pm76 °FMild.5 mph43%30.06 "HgN/A
2:00 pm75 °FMild.5 mph45%30.07 "HgN/A
Weather by CustomWeather, © 2019

See weather overview